Flag for U.S.A. Weather past 2 weeks in Annapolis, Maryland, U.S.A.

Now
57 °F

Sunny.


Feels Like: 55 °F
Forecast: 47 / 66 °F
Wind: 10 mph from Northwest

Location: Annapolis - United States Naval Academy

Current Time: Apr 28, 2015 at 10:40:36 AM

Latest Report: Apr 28, 2015 at 9:54 AM


Visibility: 10 mi

Pressure: 29.90 "Hg

Humidity: 51%

Dew point: 39 °F

Location of AnnapolisLocation

Historic Weather in Annapolis — Graph

°F

Annapolis temperature yesterday

Maximum temperature yesterday: 57 °F (at 1:54 PM)
Minimum temperature yesterday: 47 °F (at 5:54 AM)
Average temperature yesterday: 53 °F

Past Weeks' High & Low Weather Summary

 TemperatureHumidityPressure
High74 °F (Apr 20, 3:54 PM)97% (Apr 17, 6:54 AM)30.44 "Hg (Apr 17, 6:54 AM)
Low41 °F (Apr 24, 5:54 AM)22% (Apr 21, 6:54 PM)29.54 "Hg (Apr 20, 7:54 PM)
Average56 °F60%29.95 "Hg
* Reported Apr 13 8:54 AM — Apr 28 8:54 AM, Annapolis, Weather by CustomWeather, © 2015

Note: Actual official high and low records may vary slightly from our data, if they occured in-between our weather recording intervals... More about our weather records

Advertising

Annapolis weather history for previous 24 hours

 ConditionsComfort  
Time TempWeatherWind HumidityBarometerVisibility
8:54 AM
Tue, Apr 28
54 °FSunny.15 mph57%29.91 "Hg10 mi
7:54 AM52 °FSunny.12 mph59%29.90 "Hg10 mi
6:54 AM49 °FOvercast.6 mph64%29.89 "Hg10 mi
5:54 AM50 °FMostly cloudy.7 mph61%29.86 "Hg10 mi
4:54 AM50 °FPassing clouds.9 mph61%29.85 "Hg10 mi
3:54 AM50 °FOvercast.10 mph61%29.85 "Hg10 mi
2:54 AM51 °FPassing clouds.13 mph61%29.86 "Hg10 mi
1:54 AM50 °FOvercast.10 mph63%29.87 "Hg10 mi
12:54 AM51 °FClear.9 mph61%29.87 "Hg10 mi
11:54 PM
Mon, Apr 27
51 °FPassing clouds.9 mph61%29.86 "Hg10 mi
10:54 PM52 °FPassing clouds.9 mph57%29.85 "Hg10 mi
9:54 PM53 °FClear.10 mph52%29.84 "Hg10 mi
8:54 PM55 °FPassing clouds.14 mph49%29.83 "Hg10 mi
7:54 PM56 °FMore clouds than sun.13 mph42%29.81 "Hg10 mi
6:54 PM57 °FOvercast.12 mph39%29.80 "Hg10 mi
5:54 PM57 °FOvercast.12 mph39%29.78 "Hg10 mi
4:54 PM57 °FOvercast.9 mph41%29.75 "Hg10 mi
3:54 PM57 °FMostly cloudy.10 mph41%29.75 "Hg10 mi
2:54 PM57 °FOvercast.13 mph44%29.76 "Hg10 mi
1:54 PM57 °FOvercast.12 mph41%29.78 "Hg10 mi
12:54 PM56 °FOvercast.12 mph44%29.79 "Hg10 mi
11:54 AM56 °FOvercast.10 mph44%29.79 "Hg10 mi
10:54 AM54 °FOvercast.10 mph45%29.79 "Hg10 mi
Weather by CustomWeather, © 2015

See weather overviewHow to use our weather pages